This is the latest recevied weather packets stored in our database for station/object W8CWV-13. If no packets are shown the sender has not sent any weather packets the latest 10 day(s).
| Time | Temp. | Humidity | Pressure | Rain* | Wind** | Luminosity | Snow |
|---|---|---|---|---|---|---|---|
| 1777906026 | 26.67° C | 100% | 1020.3 hPa | - | - | - | - |
| 1777905444 | 26.11° C | 100% | 1020.5 hPa | - | - | - | - |
| 1777904871 | 26.67° C | 100% | 1020.4 hPa | - | - | - | - |
| 1777904297 | 25.56° C | 100% | 1020.6 hPa | - | - | - | - |
| 1777903727 | 25.56° C | 100% | 1020.9 hPa | - | - | - | - |
| 1777903153 | 25.56° C | 100% | 1020.9 hPa | - | - | - | - |
| 1777902578 | 25° C | 100% | 1020.9 hPa | - | - | - | - |
| 1777902005 | 23.89° C | 100% | 1021.1 hPa | - | - | - | - |
| 1777901434 | 23.33° C | 100% | 1021.1 hPa | - | - | - | - |
| 1777900852 | 22.78° C | 100% | 1021.2 hPa | - | - | - | - |
| 1777900279 | 22.22° C | 100% | 1021.2 hPa | - | - | - | - |
| 1777899702 | 21.11° C | 100% | 1021.2 hPa | - | - | - | - |
| 1777899127 | 20.56° C | 100% | 1021.3 hPa | - | - | - | - |
| 1777898556 | 20° C | 100% | 1021.5 hPa | - | - | - | - |
| 1777897979 | 18.33° C | 100% | 1021.6 hPa | - | - | - | - |
| 1777897408 | 18.33° C | 100% | 1021.5 hPa | - | - | - | - |
| 1777896833 | 17.22° C | 100% | 1021.5 hPa | - | - | - | - |
| 1777896260 | 16.67° C | 100% | 1021.6 hPa | - | - | - | - |
| 1777895683 | 15.56° C | 100% | 1022.2 hPa | - | - | - | - |
| 1777895105 | 13.33° C | 100% | 1023.5 hPa | - | - | - | - |
| 1777893957 | 8.33° C | 100% | 1024.1 hPa | - | - | - | - |
| 1777893377 | 8.33° C | 100% | 1024.1 hPa | - | - | - | - |
| 1777892810 | 7.78° C | 100% | 1024.3 hPa | - | - | - | - |
| 1777892230 | 7.22° C | 100% | 1024.4 hPa | - | - | - | - |
| 1777891662 | 7.22° C | 100% | 1024.5 hPa | - | - | - | - |
* Rain since midnight (hover to see other rain measurements)
** Current wind speed in m/s (hover to see current wind gust speed)